UAE9N OMDB-LTFM

Flight info

Callsign UAE9N
Flight time N/A
Altitude 38000
Route ANVIX R401 GIDIS G783 VAVIM DCT D228L DCT NOBTO DCT ESROM DCT GOLGU DCT RIBOT DCT OBSEP DCT SITUK M321 KIA V169 LABIS T503 OVANO L768 FIRAS R655 LEBOR UR655 CAK/N0499F400 UR655 BALMA L620 VESAR UL620 OSVEL UQ23 OSDAN UQ26 EMBIX DCT FM620 DCT FM621 DCT FM622 DCT FM623 DCT FM524 DCT FM526 DCT FM530 DCT FM531 DCT FM532 DCT FM533 DCT FM534 DCT FM535 DCT FM536 DCT SADIK
Aircraft A388/J-SADE2E3FGHIJ3J4J5M1RWXY/LB1D1

Departure

Time 2026-05-04 03:18
Airport Dubai International Airport (OMDB)

Arrival

Time N/A
Airport İstanbul Airport (LTFM)
Time Latitude Longitude Altitude Speed Heading
2026-05-04 02:41 25.24969 55.36150 26 ft 0 kts 211°
2026-05-04 03:03 25.24986 55.36162 31 ft 4 kts 211°
2026-05-04 03:03 25.25009 55.36177 32 ft 4 kts 211°
2026-05-04 03:03 25.25027 55.36191 32 ft 4 kts 233°
2026-05-04 03:04 25.25035 55.36216 32 ft 4 kts 279°
2026-05-04 03:04 25.25027 55.36242 32 ft 3 kts 302°
2026-05-04 03:04 25.25023 55.36249 32 ft 4 kts 302°
2026-05-04 03:05 25.25012 55.36267 32 ft 4 kts 302°
2026-05-04 03:05 25.25007 55.36277 32 ft 0 kts 302°
2026-05-04 03:08 25.25018 55.36256 32 ft 7 kts 299°
2026-05-04 03:08 25.25054 55.36181 20 ft 14 kts 303°
2026-05-04 03:08 25.25121 55.36073 26 ft 19 kts 304°
2026-05-04 03:08 25.25195 55.35952 30 ft 20 kts 303°
2026-05-04 03:09 25.25273 55.35814 31 ft 21 kts 298°
2026-05-04 03:09 25.25347 55.35669 30 ft 22 kts 301°
2026-05-04 03:09 25.25430 55.35521 29 ft 23 kts 302°
2026-05-04 03:09 25.25517 55.35369 30 ft 24 kts 302°
2026-05-04 03:10 25.25603 55.35216 28 ft 19 kts 302°
2026-05-04 03:10 25.25674 55.35157 31 ft 12 kts 15°
2026-05-04 03:10 25.25759 55.35207 30 ft 16 kts 32°
2026-05-04 03:10 25.25863 55.35279 26 ft 19 kts 32°
2026-05-04 03:11 25.25979 55.35366 26 ft 20 kts 54°
2026-05-04 03:11 25.26007 55.35510 27 ft 19 kts 106°
2026-05-04 03:11 25.25945 55.35636 27 ft 19 kts 121°
2026-05-04 03:11 25.25874 55.35760 27 ft 19 kts 122°
2026-05-04 03:12 25.25803 55.35885 27 ft 19 kts 122°
2026-05-04 03:12 25.25734 55.36009 27 ft 19 kts 121°
2026-05-04 03:12 25.25663 55.36138 28 ft 20 kts 121°
2026-05-04 03:12 25.25591 55.36266 28 ft 20 kts 122°
2026-05-04 03:13 25.25517 55.36398 27 ft 20 kts 122°
2026-05-04 03:13 25.25442 55.36530 27 ft 20 kts 122°
2026-05-04 03:13 25.25367 55.36665 26 ft 21 kts 122°
2026-05-04 03:13 25.25291 55.36800 27 ft 21 kts 122°
2026-05-04 03:14 25.25223 55.36922 27 ft 21 kts 122°
2026-05-04 03:14 25.25148 55.37055 28 ft 20 kts 123°
2026-05-04 03:14 25.25074 55.37183 28 ft 20 kts 122°
2026-05-04 03:14 25.25000 55.37314 28 ft 20 kts 122°
2026-05-04 03:15 25.24926 55.37444 29 ft 20 kts 122°
2026-05-04 03:15 25.24851 55.37578 28 ft 21 kts 121°
2026-05-04 03:15 25.24775 55.37713 28 ft 21 kts 122°
2026-05-04 03:15 25.24700 55.37847 27 ft 16 kts 122°
2026-05-04 03:16 25.24668 55.37911 27 ft 8 kts 102°
2026-05-04 03:16 25.24684 55.37961 28 ft 7 kts 43°
2026-05-04 03:16 25.24737 55.37995 29 ft 11 kts 29°
2026-05-04 03:16 25.24804 55.38010 30 ft 11 kts 330°
2026-05-04 03:17 25.24837 55.37969 30 ft 0 kts 302°
2026-05-04 03:17 25.24839 55.37966 30 ft 5 kts 302°
2026-05-04 03:17 25.25002 55.37671 31 ft 85 kts 301°
2026-05-04 03:17 25.25429 55.36901 30 ft 146 kts 301°
2026-05-04 03:18 25.26029 55.35815 40 ft 180 kts 299°
2026-05-04 03:18 25.26688 55.34638 467 ft 178 kts 300°
2026-05-04 03:18 25.27355 55.33450 789 ft 185 kts 300°
2026-05-04 03:18 25.28004 55.32281 1387 ft 172 kts 300°
2026-05-04 03:19 25.28611 55.31191 1848 ft 172 kts 300°
2026-05-04 03:19 25.29399 55.30107 1948 ft 192 kts 323°
2026-05-04 03:19 25.30755 55.29656 2141 ft 222 kts 357°
2026-05-04 03:19 25.32321 55.30154 2402 ft 253 kts 27°
2026-05-04 03:20 25.33639 55.31580 2722 ft 281 kts 56°
2026-05-04 03:20 25.34272 55.33642 3318 ft 289 kts 84°
2026-05-04 03:20 25.34037 55.35835 4014 ft 290 kts 110°
2026-05-04 03:20 25.32998 55.37721 4725 ft 288 kts 135°
2026-05-04 03:21 25.31520 55.39164 5403 ft 287 kts 146°
2026-05-04 03:21 25.29928 55.40393 6088 ft 288 kts 149°
2026-05-04 03:21 25.28245 55.41614 6734 ft 291 kts 150°
2026-05-04 03:21 25.26538 55.42859 7336 ft 296 kts 149°
2026-05-04 03:22 25.24810 55.44145 7950 ft 301 kts 149°
2026-05-04 03:22 25.23076 55.45456 8616 ft 304 kts 149°
2026-05-04 03:22 25.21325 55.46790 9287 ft 308 kts 149°
2026-05-04 03:22 25.19554 55.48141 9917 ft 311 kts 149°
2026-05-04 03:23 25.17746 55.49520 10325 ft 324 kts 148°
2026-05-04 03:23 25.15858 55.50956 10482 ft 343 kts 148°
2026-05-04 03:23 25.13819 55.52508 10653 ft 360 kts 148°
2026-05-04 03:23 25.11756 55.54082 11059 ft 368 kts 147°
2026-05-04 03:24 25.09638 55.55698 11598 ft 372 kts 147°
2026-05-04 03:24 25.07498 55.57330 12128 ft 377 kts 147°
2026-05-04 03:24 25.05327 55.58984 12672 ft 381 kts 146°
2026-05-04 03:24 25.03134 55.60653 13202 ft 385 kts 146°
2026-05-04 03:25 25.00918 55.62340 13748 ft 389 kts 145°
2026-05-04 03:25 24.98709 55.64020 14254 ft 392 kts 145°
2026-05-04 03:25 24.96455 55.65734 14756 ft 395 kts 145°
2026-05-04 03:25 24.94181 55.67462 15269 ft 399 kts 145°
2026-05-04 03:26 24.91891 55.69201 15767 ft 402 kts 145°
2026-05-04 03:26 24.89573 55.70960 16282 ft 406 kts 145°
2026-05-04 03:26 24.87243 55.72727 16773 ft 409 kts 145°
2026-05-04 03:26 24.84891 55.74510 17268 ft 412 kts 145°
2026-05-04 03:27 24.82521 55.76306 17770 ft 415 kts 145°
2026-05-04 03:27 24.80132 55.78115 18226 ft 418 kts 145°
2026-05-04 03:27 24.77729 55.79934 18719 ft 419 kts 145°
2026-05-04 03:27 24.75320 55.81758 19130 ft 422 kts 145°
2026-05-04 03:28 24.72923 55.83571 19553 ft 425 kts 145°
2026-05-04 03:28 24.70478 55.85419 19976 ft 427 kts 146°
2026-05-04 03:28 24.68023 55.87274 20391 ft 430 kts 146°
2026-05-04 03:28 24.65471 55.88984 20771 ft 432 kts 156°
2026-05-04 03:29 24.62609 55.89983 21171 ft 432 kts 172°
2026-05-04 03:29 24.59630 55.90158 21629 ft 429 kts 187°
2026-05-04 03:29 24.56720 55.89515 22017 ft 426 kts 202°
2026-05-04 03:29 24.54064 55.88100 22440 ft 423 kts 217°
2026-05-04 03:30 24.51805 55.86075 22828 ft 420 kts 227°
2026-05-04 03:30 24.50042 55.84200 23155 ft 422 kts 228°
2026-05-04 03:30 24.47929 55.81942 23536 ft 424 kts 227°
2026-05-04 03:30 24.45778 55.79730 23900 ft 426 kts 226°
2026-05-04 03:31 24.43577 55.77546 24257 ft 427 kts 225°
2026-05-04 03:31 24.41345 55.75378 24608 ft 429 kts 225°
2026-05-04 03:31 24.39100 55.73219 24962 ft 430 kts 225°
2026-05-04 03:31 24.36845 55.71058 25353 ft 431 kts 225°
2026-05-04 03:32 24.34582 55.68890 25703 ft 433 kts 225°
2026-05-04 03:32 24.32311 55.66714 26083 ft 434 kts 225°
2026-05-04 03:32 24.30060 55.64557 26446 ft 436 kts 225°
2026-05-04 03:32 24.27784 55.62372 26831 ft 437 kts 226°
2026-05-04 03:33 24.25648 55.60018 27233 ft 435 kts 232°
2026-05-04 03:33 24.23779 55.57418 27641 ft 433 kts 238°
2026-05-04 03:33 24.22006 55.54734 28055 ft 435 kts 238°
2026-05-04 03:33 24.20219 55.52060 28479 ft 437 kts 237°
2026-05-04 03:34 24.18409 55.49363 28888 ft 440 kts 237°
2026-05-04 03:34 24.16446 55.46767 29299 ft 446 kts 230°
2026-05-04 03:34 24.14142 55.44460 29755 ft 452 kts 223°
2026-05-04 03:34 24.11577 55.42514 30162 ft 460 kts 215°
2026-05-04 03:35 24.08751 55.40835 30566 ft 463 kts 213°
2026-05-04 03:35 24.05912 55.39164 30972 ft 464 kts 213°
2026-05-04 03:35 24.03069 55.37477 31369 ft 466 kts 213°
2026-05-04 03:35 24.00219 55.35782 31763 ft 467 kts 213°
2026-05-04 03:36 23.97406 55.34002 32137 ft 465 kts 219°
2026-05-04 03:36 23.94959 55.31751 32526 ft 461 kts 230°
2026-05-04 03:36 23.92961 55.29036 32903 ft 457 kts 240°
2026-05-04 03:36 23.91495 55.26016 33271 ft 455 kts 250°
2026-05-04 03:37 23.90556 55.22725 33604 ft 455 kts 258°
2026-05-04 03:37 23.89862 55.19332 33947 ft 458 kts 258°
2026-05-04 03:37 23.89148 55.15932 34257 ft 460 kts 258°
2026-05-04 03:37 23.88423 55.12522 34610 ft 461 kts 258°
2026-05-04 03:38 23.87695 55.09107 35038 ft 461 kts 258°
2026-05-04 03:38 23.86969 55.05706 35477 ft 460 kts 258°
2026-05-04 03:38 23.86243 55.02307 35900 ft 459 kts 258°
2026-05-04 03:38 23.85526 54.98950 36289 ft 459 kts 258°
2026-05-04 03:39 23.84801 54.95555 36666 ft 459 kts 258°
2026-05-04 03:39 23.84076 54.92165 37094 ft 458 kts 258°
2026-05-04 03:39 23.83348 54.88769 37508 ft 458 kts 258°
2026-05-04 03:39 23.82622 54.85385 37824 ft 459 kts 258°
2026-05-04 03:40 23.81889 54.81967 37825 ft 463 kts 258°
2026-05-04 03:40 23.80427 54.75167 37823 ft 460 kts 258°
2026-05-04 03:41 23.79204 54.69492 37826 ft 462 kts 258°
2026-05-04 03:41 23.77591 54.62023 37829 ft 462 kts 258°
2026-05-04 03:42 23.76113 54.55196 37829 ft 462 kts 258°
2026-05-04 03:42 23.74634 54.48376 37826 ft 462 kts 258°
2026-05-04 03:43 23.73158 54.41591 37823 ft 462 kts 258°
2026-05-04 03:43 23.71672 54.34770 37824 ft 462 kts 257°
2026-05-04 03:44 23.70181 54.27945 37823 ft 462 kts 257°
2026-05-04 03:44 23.68689 54.21128 37824 ft 463 kts 257°
2026-05-04 03:45 23.67189 54.14292 37827 ft 463 kts 257°
2026-05-04 03:45 23.65698 54.07511 37829 ft 463 kts 257°
2026-05-04 03:46 23.64192 54.00678 37833 ft 463 kts 257°
2026-05-04 03:46 23.62682 53.93840 37832 ft 464 kts 257°
2026-05-04 03:47 23.61169 53.87001 37833 ft 464 kts 257°
2026-05-04 03:47 23.59663 53.80213 37838 ft 464 kts 257°
2026-05-04 03:48 23.58143 53.73377 37836 ft 464 kts 257°
2026-05-04 03:48 23.56619 53.66535 37835 ft 464 kts 257°
2026-05-04 03:49 23.55092 53.59698 37836 ft 465 kts 257°
2026-05-04 03:49 23.53571 53.52903 37840 ft 465 kts 257°
2026-05-04 03:50 23.52036 53.46058 37836 ft 465 kts 257°
2026-05-04 03:50 23.50500 53.39222 37838 ft 465 kts 257°
2026-05-04 03:51 23.48970 53.32433 37844 ft 465 kts 257°
2026-05-04 03:51 23.47428 53.25598 37842 ft 465 kts 257°
2026-05-04 03:52 23.45882 53.18766 37836 ft 465 kts 257°
2026-05-04 03:52 23.44330 53.11922 37838 ft 465 kts 257°
2026-05-04 03:53 23.42777 53.05083 37842 ft 465 kts 257°
2026-05-04 03:53 23.41098 52.98323 37843 ft 466 kts 252°
2026-05-04 03:54 23.38591 52.91812 37844 ft 468 kts 244°
2026-05-04 03:54 23.35424 52.85620 37846 ft 468 kts 242°
2026-05-04 03:55 23.32249 52.79427 37848 ft 468 kts 242°
2026-05-04 03:55 23.29096 52.73285 37848 ft 468 kts 242°
2026-05-04 03:56 23.25915 52.67104 37847 ft 468 kts 242°
2026-05-04 03:56 23.22730 52.60926 37845 ft 468 kts 242°
2026-05-04 03:57 23.19566 52.54792 37847 ft 468 kts 243°
2026-05-04 03:57 23.16927 52.48357 37843 ft 466 kts 252°
2026-05-04 03:58 23.14004 52.38297 37844 ft 465 kts 258°
2026-05-04 03:58 23.12560 52.31458 37848 ft 465 kts 257°
2026-05-04 03:59 23.11098 52.24661 37854 ft 465 kts 257°
2026-05-04 03:59 23.09625 52.17828 37856 ft 465 kts 257°
2026-05-04 04:00 23.08149 52.10991 37859 ft 465 kts 257°
2026-05-04 04:00 23.06670 52.04153 37856 ft 465 kts 257°
2026-05-04 04:01 23.05199 51.97362 37860 ft 465 kts 257°
2026-05-04 04:01 23.03716 51.90534 37859 ft 465 kts 257°
2026-05-04 04:02 23.02229 51.83707 37854 ft 465 kts 257°
2026-05-04 04:02 23.00739 51.76878 37859 ft 464 kts 257°
2026-05-04 04:03 22.99259 51.70108 37858 ft 464 kts 257°
2026-05-04 04:03 22.97768 51.63300 37856 ft 464 kts 257°
2026-05-04 04:04 22.96272 51.56492 37858 ft 464 kts 257°
2026-05-04 04:04 22.94773 51.49680 37859 ft 464 kts 257°
2026-05-04 04:05 22.93284 51.42928 37862 ft 463 kts 257°
2026-05-04 04:05 22.91783 51.36136 37861 ft 463 kts 257°
2026-05-04 04:06 22.90277 51.29335 37857 ft 463 kts 257°
2026-05-04 04:06 22.89778 51.27084 37859 ft 463 kts 257°